#timestamp,LO_Frequency,Hit,StdDev 
1514077215.8,286046999.2,N
1514077235.6,286046999.5,N
1514077255.4,286046998.6,N
1514077275.3,286047000.8,N
1514077295.1,286047000.5,N
1514077315.9,286047002.1,N
1514077335.7,286047004.4,N
1514077355.6,286047006.0,N
1514077375.4,286047003.7,N
1514077395.2,286047002.5,N
1514077415.1,286047002.2,N
1514077416.0,286047002.2,N
1514077435.8,286047002.1,N
1514077455.6,286046999.7,N
1514077475.5,286047002.8,N
1514077495.3,286047000.7,N
1514077515.2,286047001.0,N
1514077535.9,286047002.3,N
1514077555.7,286047002.2,N
1514077575.6,286047000.2,N
1514077595.4,286047000.5,N
1514077615.2,286047001.2,N
1514077635.1,286046996.7,N
1514077636.0,286046996.7,N
1514077655.8,286046999.2,N
1514077675.7,286046999.5,N
1514077695.5,286046999.2,N
1514077715.3,286046998.9,N
1514077735.2,286047001.2,N
1514077755.0,286047000.4,N
1514077755.9,286047000.4,N
1514077775.8,286047000.9,N
1514077795.6,286047001.2,N
1514077815.4,286047000.8,N
1514077835.3,286046998.5,N
1514077855.1,286046999.3,N
1514077875.9,286046999.6,N
1514077895.7,286046998.4,N
1514077915.5,286047001.1,N
1514077935.4,286046998.4,N
1514077955.2,286046996.5,N
1514077975.0,286046998.8,N
1514077976.0,286046998.8,N
1514077995.8,286046996.5,N
1514078015.6,286046997.0,N
1514078035.5,286046997.0,N
1514078055.3,286046997.6,N
1514078075.1,286046997.7,N
1514078095.9,286046997.1,N
1514078115.7,286046996.8,N
1514078135.6,286046999.2,N
1514078155.4,286046999.5,N
1514078175.2,286046999.0,N
1514078195.1,286046998.3,N
1514078196.0,286046998.3,N
1514078215.8,286046998.5,N
1514078235.7,286046998.1,N
1514078255.5,286046996.6,N
1514078275.3,286046999.4,N
1514078295.2,286046999.5,N
1514078315.0,286046999.5,N
1514078315.9,286046999.5,N
1514078335.7,286046999.3,N
1514078355.6,286046999.6,N
1514078375.4,286046999.6,N
1514078395.3,286046995.8,Y
1514078415.1,286046997.1,P
1514078435.8,286046997.3,P
1514078455.7,286046999.0,N
1514078475.5,286046998.6,N
1514078495.4,286046998.4,N
1514078515.2,286047000.2,N
1514078535.0,286047000.0,N
1514078535.9,286047000.0,N
1514078555.8,286046999.8,N
1514078575.6,286047001.4,N
1514078595.5,286047004.4,Y
1514078615.3,286047004.2,P
1514078635.1,286047004.1,N
1514078655.9,286047004.2,N
1514078675.7,286047001.9,N
1514078695.5,286047002.2,N
1514078715.4,286047000.6,N
1514078735.2,286046998.2,N
1514078755.1,286047000.3,N
1514078756.0,286047000.3,N
1514078775.8,286046998.6,N
1514078795.6,286046998.1,N
1514078815.5,286046998.2,N
1514078835.3,286047000.8,N
1514078855.2,286047000.4,N
1514078875.9,286046998.6,N
1514078895.7,286046999.0,N
1514078915.6,286046998.9,N
1514078935.4,286046997.0,N
1514078955.2,286046996.7,N
1514078975.1,286046996.8,N
1514078976.0,286046996.8,N
1514078995.8,286046997.2,N
1514079015.7,286046996.5,N
1514079035.5,286046997.1,N
1514079055.3,286046996.6,N
1514079075.2,286046997.5,N
1514079095.0,286046996.7,N
1514079095.9,286046996.7,N
1514079115.8,286046999.3,N
1514079135.6,286046998.7,N
1514079155.4,286046998.1,N
1514079175.3,286046999.3,N
1514079195.1,286046997.8,N
1514079215.8,286046996.6,N
1514079235.7,286046999.0,N
1514079255.5,286046997.3,N
1514079275.4,286046995.4,Y
1514079295.2,286046999.2,P
1514079315.0,286046997.3,P
1514079315.9,286046997.3,P
1514079335.8,286046997.1,Y
1514079355.6,286046998.3,P
1514079375.5,286046998.1,P
1514079395.3,286046998.5,P
1514079415.1,286046996.9,Y
1514079435.9,286047000.3,P
1514079455.7,286047002.1,N
1514079475.6,286047001.8,N
1514079495.4,286047001.4,N
1514079515.2,286047003.2,N
1514079535.1,286047003.0,N
1514079536.0,286047003.0,N
1514079555.8,286047005.2,Y
1514079575.6,286047001.3,P
1514079595.5,286047002.0,P
1514079615.3,286047002.3,P
1514079635.2,286047002.2,Y
1514079655.0,286046999.8,P
1514079655.9,286046999.8,N
1514079675.7,286046999.9,N
1514079695.6,286047002.3,N
1514079715.4,286047000.0,N
1514079735.3,286047000.2,N
1514079755.1,286047000.1,N
1514079756.0,286047000.1,N
1514079775.8,286046998.1,N
1514079795.7,286047000.8,N
1514079815.5,286047000.5,N
1514079835.4,286047001.0,N
1514079855.2,286046998.1,N
1514079875.0,286047000.3,N
1514079875.9,286047000.3,N
1514079895.8,286047002.8,N
1514079915.6,286047001.0,N
1514079935.5,286046999.8,N
1514079955.3,286046999.3,N
1514079975.1,286046999.6,N
1514079995.9,286046996.7,N
1514080015.7,286046995.0,Y
1514080035.5,286046995.0,P
1514080055.4,286046999.5,N
1514080075.2,286046997.5,N
1514080095.1,286046995.1,N
1514080096.0,286046995.1,N
1514080115.8,286046997.9,N
1514080135.6,286046997.5,N
1514080155.5,286046996.1,N
1514080175.3,286046995.8,N
1514080195.2,286046995.7,N
1514080215.9,286046996.8,N
1514080235.7,286046995.8,N
1514080255.6,286046997.5,N
1514080275.4,286046996.6,N
1514080295.2,286046996.7,N
1514080315.1,286046996.6,N
1514080316.0,286046996.6,N
1514080335.8,286046996.5,N
1514080355.7,286046998.3,N
1514080375.5,286047000.8,N
1514080395.3,286046996.5,N
1514080415.2,286046998.5,N
1514080435.0,286046998.9,N
1514080435.9,286046998.9,N
1514080455.8,286046999.2,N
1514080475.6,286047001.2,N
1514080495.4,286047000.8,N
1514080515.3,286047001.0,N
1514080535.1,286046998.1,N
1514080555.9,286046998.6,N
1514080575.7,286046999.4,N
1514080595.5,286046998.2,N
1514080615.4,286046999.3,N
1514080635.2,286046998.9,N
1514080655.0,286046998.1,N
1514080655.9,286046998.1,N
1514080675.8,286046998.2,N
1514080695.6,286046998.6,N
1514080715.5,286046998.9,N
1514080735.3,286046996.9,N
1514080755.1,286046996.8,N
1514080775.9,286046999.6,N
1514080795.7,286046997.3,N
